Miscellaneous Local Product
Issued by NWS North Platte, NE

Home | Current Version | Previous Version | Graphics & Text | Print | Product List | Glossary On
Versions: 1 2 3 4 5 6 7 8 9 10 11 12 13 14 15 16 17 18 19 20 21 22 23 24 25 26 27 28 29 30 31 32 33 34 35 36 37 38 39 40 41 42 43 44 45 46 47 48 49 50
000
AXUS43 KLBF 071610
MISLBF


WESTERN AND NORTH CENTRAL NEBRASKA HOURLY WEATHER ROUNDUP
NATIONAL WEATHER SERVICE NORTH PLATTE NE
1000 AM CST WED DEC 07 2016

NOTE: "FAIR" INDICATES FEW OR NO CLOUDS BELOW 12,000 FEET WITH NO
SIGNIFICANT WEATHER AND/OR OBSTRUCTIONS TO VISIBILITY.

NOTE: STATIONS NOT REPORTING VARIABLES SUCH AS SKY/WEATHER OR
PRESSURE ARE PROVIDED BY RAWS AND APRS NETWORKS AND ARE NOT UNDER
NATIONAL WEATHER SERVICE QUALITY CONTROL.

...OBSERVATIONS IN AND NEAR THE EASTERN PANHANDLE OF NEBRASKA...

CITY           SKY/WX    TMP DP  RH WIND       PRES   REMARKS
PINE RIDGE     CLOUDY     4  -1  80 CALM      30.30R
CHADRON        CLOUDY     7  -3  64 W16G28    30.33R WCI -11
ALLIANCE       LGT SNOW   8   1  73 NW10      30.24R WCI  -6
SIDNEY         LGT SNOW   9   3  77 N16       30.23R WCI  -8
CRESCENT LAKE    N/A      7   2  80 N12         N/A  WCI  -8
$$

...OBSERVATIONS IN NORTHERN NEBRASKA AND FAR SOUTHERN SOUTH DAKOTA...

CITY           SKY/WX    TMP DP  RH WIND       PRES   REMARKS
WINNER         PTSUNNY    7  -3  64 NW18G26   30.34R WCI -12
VALENTINE      CLOUDY     7  -5  57 NW21G26   30.31R WCI -13
THEDFORD       PTSUNNY   12   0  58 N18       30.30R WCI  -6
AINSWORTH      CLOUDY     8  -2  65 NW17G24   30.30R WCI -10
O`NEILL        CLOUDY    11   1  62 NW17G26   30.30R WCI  -6
ORD            CLOUDY    13  -1  54 NW18      30.31R WCI  -4
BROKEN BOW     CLOUDY    14   1  56 NW18      30.30R WCI  -3
VALENTINE NWR    N/A      6  -5  60 NW15G22     N/A  WCI -12
BUTTE            N/A      7   0  71 W23G30      N/A  WCI -14
HALSEY           N/A      9  -5  53 NW12G20     N/A  WCI  -6
CHAMBERS         N/A     11  -2  55 W3          N/A
EWING            N/A     12   3  66 NW12G23     N/A  WCI  -2
$$

...OBSERVATIONS IN SOUTHWEST NEBRASKA AND FAR NORTHEAST COLORADO...

CITY           SKY/WX    TMP DP  RH WIND       PRES   REMARKS
WRAY           LGT SNOW  14  10  85 NE8       30.26R WCI   3
HOLYOKE        FAIR      16   9  73 N10       30.27R WCI   3
IMPERIAL       LGT SNOW  12   7  80 N13       30.29R WCI  -3
OGALLALA       CLOUDY    15   8  76 N10       30.29R HAZE    WCI   2
NORTH PLATTE   LGT SNOW  13   5  70 N14       30.32R WCI  -2
MCCOOK         LGT SNOW  15  10  80 N6        30.32R VSB 3/4 WCI   6
LEXINGTON      CLOUDY    16   7  68 N12       30.32R WCI   3
STAPLETON        N/A     11   2  66 CALM        N/A
GOTHENBURG       N/A     13   3  63 NW12        N/A  WCI  -1
CALLAWAY         N/A     12   3  67 NW18        N/A  WCI  -6
$$

...OBSERVATIONS IN CENTRAL LINCOLN COUNTY AREA...

CITY           SKY/WX    TMP DP  RH WIND       PRES   REMARKS
N.P. AIRPORT   LGT SNOW  13   5  70 N14       30.32R WCI  -2
N.P. DOWNTOWN    N/A     11   5  77 N8          N/A  WCI  -1
N.P. SOUTHEAST   N/A     11   5  77 N5G13       N/A  WCI   3
N.P. HILLCREST   N/A     11   6  79 N12         N/A  WCI  -3
$$

...SOME OBSERVATIONS FROM AROUND THE REGION...

CITY           SKY/WX    TMP DP  RH WIND       PRES   REMARKS
LARAMIE        CLOUDY    -6 -10  83 CALM      29.99R
CHEYENNE       MIX PCPN   0  -7  72 N12       30.09R WCI -17
DENVER         LGT SNOW   7   3  84 N14       30.14R FOG     WCI -10
AKRON          LGT SNOW   9   4  80 N14       30.19R WCI  -7
SCOTTSBLUFF    LGT SNOW   7   0  73 NW12      30.28R WCI  -8
RAPID CITY     CLOUDY     8  -2  63 NW29      30.31R WCI -15
BISMARCK       CLOUDY     4  -1  80 NW22G37   30.26R WCI -18
PIERRE         CLOUDY     9   2  73 NW21G28   30.31R WCI -11
SIOUX FALLS    CLOUDY    13   6  74 NW24G30   30.21R WCI  -7
OMAHA          CLOUDY    19   7  59 NW14      30.33R WCI   6
GRAND ISLAND   CLOUDY    17   4  56 NW14      30.34R WCI   3
KANSAS CITY    CLOUDY    27  13  55 N8        30.29R WCI  19
WICHITA        CLOUDY    35  16  45 NE12      30.23R WCI  27
OKLAHOMA CITY  CLOUDY    37  21  52 NE9       30.15R WCI  30
DALLAS         CLOUDY    46  37  71 CALM      30.12R
AMARILLO       CLOUDY    29  24  82 CALM      30.05R
DODGE CITY     LGT SNOW  24  21  88 NE18      30.20R FOG     WCI  10
HAYS           FLURRIES  21  14  74 N16       30.32R WCI   7
GOODLAND       LGT SNOW  13   9  84 NE14      30.23R FOG     WCI  -2
$$




USA.gov is the U.S. government's official web portal to all federal, state and local government web resources and services.